Regional Weather Roundup
Issued by NWS Upton, NY

Current Version | Previous Version | Graphics & Text | Print | Product List | Glossary Off
Versions: 1 2 3 4 5 6 7 8 9 10 11 12 13 14 15 16 17 18 19 20 21 22 23 24 25 26 27

000
ASUS41 KOKX 220909
RWROKX

REGIONAL WEATHER ROUNDUP
NATIONAL WEATHER SERVICE NEW YORK NY
500 AM EDT MON MAY 22 2017

NOTE: "FAIR" INDICATES FEW OR NO CLOUDS BELOW 12,000 FEET WITH NO
SIGNIFICANT WEATHER AND/OR OBSTRUCTIONS TO VISIBILITY.

NYZ071-072-176-178-NJZ106-104-221000-
NEW YORK CITY METRO AREA

CITY           SKY/WX    TMP DP  RH WIND       PRES   REMARKS
Central Park   CLOUDY    53  52  96 CALM      30.20F
Wall St Helipt CLOUDY    56  51  84 VRB6      30.18F
Bronx Bot Gard   N/A     52  50  93 CALM      30.18S
LaGuardia APRT LGT RAIN  57  50  77 NE5       30.18S
Kennedy INTL   LGT RAIN  57  50  77 SE5       30.20F
Breezy Point     N/A     54 N/A N/A SE7         N/A
Newark/Liberty LGT RAIN  56  52  86 CALM      30.17F
Teterboro      LGT RAIN  54  51  90 SE3       30.16F
$$

NYZ177-179-078>081-221000-
LONG ISLAND NEW YORK

CITY           SKY/WX    TMP DP  RH WIND       PRES   REMARKS
Jones Beach      N/A     55 N/A N/A SE5         N/A
Matinecock PT  NOT AVBL
Farmingdale    LGT RAIN  55  48  77 E5        30.19F
MacArthur/ISP  CLOUDY    55  47  74 E5        30.19F
Shirley        CLOUDY    54  49  83 CALM      30.21F
Mt Sinai Harb    N/A     54 N/A N/A SE1         N/A
Westhampton    CLOUDY    52  48  86 CALM      30.23S
East Hampton   LGT RAIN  53  46  77 SE3       30.21S
Montauk          N/A     55  48  77 CALM      30.24R
$$

NYZ052-065-067-221000-
HUDSON VALLEY

CITY           SKY/WX    TMP DP  RH WIND       PRES   REMARKS
White Plains   CLOUDY    52  49  89 E7        30.17F
Larchmont Harb   N/A     54 N/A N/A E6          N/A
Croton O-T Hud   N/A     54 N/A N/A SE2G8       N/A
Newburgh       CLOUDY    55  45  67 S12       30.17F
Montgomery     CLOUDY    55  44  66 S7        30.15F
Poughkeepsie   CLOUDY    55  41  59 S3        30.16F
Albany         LGT RAIN  51  42  71 S8        30.13S
$$

NJZ001-105-106-008-010-013-015-019>022-104-221000-
NEW JERSEY

CITY           SKY/WX    TMP DP  RH WIND       PRES   REMARKS
Newark/Liberty LGT RAIN  56  52  86 CALM      30.17F
Teterboro      LGT RAIN  54  51  90 SE3       30.16F
Caldwell       CLOUDY    55  49  80 SE5       30.18F
Somerville     CLOUDY    53  51  93 SE3       30.15F
Linden         LGT RAIN  56  51  84 E3        30.17F
Perth Amboy      N/A     55 N/A N/A SE10        N/A
Sussex         CLOUDY    55  46  71 SW5       30.16F
Andover          N/A     53  45  74 S6        30.15F
Trenton        LGT RAIN  55  52  89 NE5       30.16S
Millville      LGT RAIN  56  56 100 E5        30.13S FOG
Atlantic City  CLOUDY    57  54  89 E6        30.14F
Wrightstown    LGT RAIN  54  52  93 E3        30.14S
Toms River     RAIN      55  53  93 E5        30.17F
Belmar         LGT RAIN  54  51  90 E6        30.18F
$$

PAZ047>061-062-071-221000-
EASTERN PENNSYLVANIA

CITY           SKY/WX    TMP DP  RH WIND       PRES   REMARKS
Philadelphia   CLOUDY    56  52  86 E8        30.15F
Allentown      CLOUDY    56  48  74 SE5       30.15F
Scranton       CLOUDY    57  45  64 CALM      30.10F
$$

CTZ002-004>006-009-010-012-RIZ004-006-007-MAZ004-011-015-221000-
SOUTHERN NEW ENGLAND
 IN CT

CITY           SKY/WX    TMP DP  RH WIND       PRES   REMARKS
Bradley INTL   CLOUDY    52  46  80 S8        30.20F
Hartford       CLOUDY    52  47  83 S5        30.21F
Danbury        CLOUDY    49  45  86 SE7       30.20F
Wtrbury/Oxford   N/A     48  43  81 S9        30.21F
Bridgeport     LGT RAIN  53  47  79 NW3       30.21S
Meriden        LGT RAIN  51  48  89 CALM      30.22R
New Haven      CLOUDY    51  45  79 CALM      30.22S
Chester        LGT RAIN  50  50 100 CALM      30.21F
Groton         LGT RAIN  53  49  86 SE3       30.22R
Wilimantic     LGT RAIN  53  47  79 CALM      30.22S

 IN RI

CITY           SKY/WX    TMP DP  RH WIND       PRES   REMARKS
Providence     LGT RAIN  53  48  83 SW5       30.23R
Block Island   CLOUDY    53  46  77 S7        30.23R
Westerly       LGT RAIN  54  48  80 S3        30.23S
 IN MA

CITY           SKY/WX    TMP DP  RH WIND       PRES   REMARKS
Boston         CLOUDY    54  37  52 SW7       30.22S
Worcester      NOT AVBL
Westfield      CLOUDY    51  46  83 S6        30.18F
Provincetown   MOCLDY    53  45  74 S5        30.24S
Nantucket      CLOUDY    51  36  56 S5        30.23F
$$

ANZ330-335-338-340-345-350-353-355-221000-
COASTAL MARINE OBSERVATIONS


STATION/POSITION TIME  SKY/WX   TEMP    WIND        PRES    VSBY  WAVE
                                AIR SEA DIR/SP/G                  HT/PER
                 (UTC)          (F)     (DEG/KT/KT) (MB)    (MI)  (FT/S)
NY HARB ENTRANCE 0750            56 56  130/  6/  8 1022.3          2/ 6
20 S FIRE ISLAND 0850            54 54  110/  8/ 10 1021.5          2/ 6
GREAT SOUTH BAY  0830            56 65  120/  6/  8   N/A
23 SSW MONTAUK P 0750            54 55              1023.4          2/ 7
15 E BARNEGAT LI 0830               56                N/A           3/ 6
HUDSON CANYON    0750            55 53  120/  8/ 10 1021.8          3/ 6
KINGS POINT      0836            54 58   60/  3/  4 1022.1
EXECUTION ROCKS  0845            54                   N/A
CENTRAL LI SOUND NOT AVBL
EASTERN LI SOUND NOT AVBL
ROBBINS REEF     0842            56     140/  8/  9 1022.5
$$


>>>>>>>>>>>>>>>>>>>>>>>>>>>> KEY <<<<<<<<<<<<<<<<<<<<<<<<<<<
>                                                          <
>     SKY/WX - Sky Condition/Present Weather               <
>     TMP    - Temperature in Fahrenheit                   <
>     DP     - Dew Point in Fahrenheit                     <
>     RH     - Relative Humidity in Percent                <
>     WIND   - Direction (from) and Speed in MPH           <
>     PRES   - Mean Sea Level Pressure (inches of Hg)      <
>     WCI    - Wind Chill Index                            <
>     VSB    - VISIBILITY IN MILES                         <
>     HX     - HEAT INDEX                                  <
>     TC     - TEMPERATURE IN CELSIUS                      <
>     VRB    - VARIABLE WIND DIRECTION                     <
>                                                          <
>>>>>>>>>>>>>>>>>>>>>>>>>>>> KEY <<<<<<<<<<<<<<<<<<<<<<<<<<<




USA.gov is the U.S. government's official web portal to all federal, state and local government web resources and services.